AMX255 MMMY-MMGL

Flight info

Callsign AMX255
Flight time 1h 7m
Altitude 32000
Route URTOB1A URTOB UJ11 MEZCA MEZCA1B
Aircraft MD82/M-SDFGIRWY/S

Departure

Time 2026-04-22 01:26
Airport Monterrey International Airport (MMMY)

Arrival

Time 2026-04-22 02:33
Airport Guadalajara International Airport (MMGL)
Time Latitude Longitude Altitude Speed Heading
2026-04-22 00:50 25.77473 -100.11037 1277 ft 0 kts 249°
2026-04-22 01:15 25.77478 -100.11022 1277 ft 2 kts 252°
2026-04-22 01:15 25.77483 -100.11004 1279 ft 2 kts 256°
2026-04-22 01:15 25.77486 -100.10987 1279 ft 2 kts 264°
2026-04-22 01:15 25.77485 -100.10968 1279 ft 2 kts 282°
2026-04-22 01:16 25.77478 -100.10952 1278 ft 2 kts 322°
2026-04-22 01:16 25.77468 -100.10947 1280 ft 1 kts 342°
2026-04-22 01:16 25.77468 -100.10946 1280 ft 0 kts 343°
2026-04-22 01:19 25.77469 -100.10946 1280 ft 1 kts 347°
2026-04-22 01:19 25.77518 -100.10944 1276 ft 13 kts 357°
2026-04-22 01:19 25.77630 -100.10980 1274 ft 14 kts 324°
2026-04-22 01:20 25.77691 -100.11062 1273 ft 14 kts 302°
2026-04-22 01:20 25.77737 -100.11130 1274 ft 3 kts 340°
2026-04-22 01:20 25.77780 -100.11119 1274 ft 11 kts 25°
2026-04-22 01:20 25.77840 -100.11085 1274 ft 1 kts
2026-04-22 01:21 25.77866 -100.11110 1275 ft 9 kts 295°
2026-04-22 01:21 25.77910 -100.11202 1276 ft 18 kts 301°
2026-04-22 01:21 25.77985 -100.11338 1278 ft 22 kts 301°
2026-04-22 01:21 25.78063 -100.11478 1281 ft 21 kts 302°
2026-04-22 01:22 25.78137 -100.11610 1283 ft 20 kts 301°
2026-04-22 01:22 25.78204 -100.11735 1285 ft 18 kts 301°
2026-04-22 01:22 25.78252 -100.11804 1287 ft 3 kts 340°
2026-04-22 01:22 25.78280 -100.11799 1288 ft 7 kts 22°
2026-04-22 01:23 25.78289 -100.11793 1288 ft 0 kts 28°
2026-04-22 01:24 25.78294 -100.11791 1288 ft 4 kts 28°
2026-04-22 01:24 25.78351 -100.11755 1289 ft 16 kts 30°
2026-04-22 01:24 25.78406 -100.11686 1289 ft 7 kts 91°
2026-04-22 01:25 25.78376 -100.11631 1288 ft 25 kts 121°
2026-04-22 01:25 25.78175 -100.11270 1279 ft 88 kts 121°
2026-04-22 01:25 25.77747 -100.10495 1270 ft 146 kts 121°
2026-04-22 01:25 25.77184 -100.09407 1552 ft 168 kts 117°
2026-04-22 01:26 25.76663 -100.08272 2329 ft 165 kts 117°
2026-04-22 01:26 25.76142 -100.07105 2896 ft 173 kts 115°
2026-04-22 01:26 25.75562 -100.05893 3375 ft 188 kts 122°
2026-04-22 01:26 25.74916 -100.04701 3814 ft 201 kts 121°
2026-04-22 01:27 25.74243 -100.03316 4347 ft 212 kts 117°
2026-04-22 01:27 25.73494 -100.01877 4842 ft 221 kts 126°
2026-04-22 01:27 25.72650 -100.00433 5488 ft 224 kts 123°
2026-04-22 01:27 25.71801 -99.98962 6083 ft 232 kts 122°
2026-04-22 01:28 25.70915 -99.97403 6548 ft 245 kts 122°
2026-04-22 01:28 25.69850 -99.95874 6970 ft 260 kts 136°
2026-04-22 01:28 25.68294 -99.94758 7291 ft 277 kts 163°
2026-04-22 01:28 25.66354 -99.94638 7818 ft 282 kts 193°
2026-04-22 01:29 25.64579 -99.95490 8531 ft 281 kts 218°
2026-04-22 01:29 25.63186 -99.97057 8923 ft 293 kts 238°
2026-04-22 01:29 25.62147 -99.98963 9847 ft 282 kts 242°
2026-04-22 01:29 25.61187 -100.00871 10385 ft 291 kts 243°
2026-04-22 01:30 25.60197 -100.02835 10819 ft 300 kts 244°
2026-04-22 01:30 25.59318 -100.04990 11069 ft 315 kts 252°
2026-04-22 01:30 25.58755 -100.07394 11261 ft 331 kts 262°
2026-04-22 01:30 25.58511 -100.09980 11505 ft 344 kts 269°
2026-04-22 01:31 25.58591 -100.12635 12065 ft 345 kts 277°
2026-04-22 01:31 25.58991 -100.15251 12776 ft 344 kts 284°
2026-04-22 01:31 25.59697 -100.17779 13441 ft 344 kts 291°
2026-04-22 01:31 25.60685 -100.20176 14092 ft 343 kts 296°
2026-04-22 01:32 25.61504 -100.22647 14564 ft 344 kts 277°
2026-04-22 01:32 25.61338 -100.25286 14962 ft 349 kts 253°
2026-04-22 01:32 25.60149 -100.27635 15500 ft 356 kts 231°
2026-04-22 01:32 25.58169 -100.29322 16006 ft 366 kts 210°
2026-04-22 01:33 25.55828 -100.30488 16496 ft 370 kts 207°
2026-04-22 01:33 25.53506 -100.31737 16961 ft 373 kts 212°
2026-04-22 01:33 25.51297 -100.33216 17636 ft 370 kts 216°
2026-04-22 01:33 25.49164 -100.34815 18196 ft 371 kts 218°
2026-04-22 01:34 25.47081 -100.36500 18715 ft 371 kts 220°
2026-04-22 01:34 25.45027 -100.38242 19139 ft 374 kts 221°
2026-04-22 01:34 25.42975 -100.40026 19581 ft 377 kts 221°
2026-04-22 01:34 25.40934 -100.41842 20146 ft 378 kts 223°
2026-04-22 01:35 25.38867 -100.43658 20589 ft 381 kts 222°
2026-04-22 01:35 25.36774 -100.45481 20966 ft 384 kts 222°
2026-04-22 01:35 25.34668 -100.47318 21364 ft 387 kts 223°
2026-04-22 01:35 25.32553 -100.49164 21858 ft 389 kts 223°
2026-04-22 01:36 25.30424 -100.51023 22315 ft 390 kts 223°
2026-04-22 01:36 25.28282 -100.52887 22729 ft 393 kts 223°
2026-04-22 01:36 25.26118 -100.54761 23096 ft 397 kts 223°
2026-04-22 01:36 25.23939 -100.56648 23523 ft 400 kts 223°
2026-04-22 01:37 25.21747 -100.58552 23913 ft 401 kts 223°
2026-04-22 01:37 25.19554 -100.60453 24373 ft 401 kts 223°
2026-04-22 01:37 25.17348 -100.62356 24713 ft 403 kts 223°
2026-04-22 01:37 25.15130 -100.64265 25060 ft 405 kts 223°
2026-04-22 01:38 25.12933 -100.66154 25422 ft 406 kts 223°
2026-04-22 01:38 25.10697 -100.68079 25770 ft 409 kts 223°
2026-04-22 01:38 25.08452 -100.70012 26144 ft 410 kts 223°
2026-04-22 01:38 25.06261 -100.71898 26497 ft 411 kts 223°
2026-04-22 01:39 25.03998 -100.73847 26842 ft 413 kts 223°
2026-04-22 01:39 25.01729 -100.75794 27177 ft 415 kts 223°
2026-04-22 01:39 24.99437 -100.77757 27487 ft 418 kts 223°
2026-04-22 01:39 24.97138 -100.79726 27852 ft 419 kts 223°
2026-04-22 01:40 24.94834 -100.81700 28214 ft 420 kts 223°
2026-04-22 01:40 24.92485 -100.83713 28513 ft 422 kts 223°
2026-04-22 01:40 24.90202 -100.85670 28842 ft 424 kts 223°
2026-04-22 01:40 24.87876 -100.87661 29313 ft 422 kts 223°
2026-04-22 01:41 24.85568 -100.89637 29860 ft 419 kts 223°
2026-04-22 01:41 24.83277 -100.91595 30372 ft 415 kts 223°
2026-04-22 01:41 24.81008 -100.93535 30815 ft 412 kts 223°
2026-04-22 01:41 24.78747 -100.95468 31191 ft 411 kts 223°
2026-04-22 01:42 24.76490 -100.97390 31550 ft 410 kts 223°
2026-04-22 01:42 24.74234 -100.99311 31800 ft 411 kts 223°
2026-04-22 01:42 24.71970 -101.01242 31904 ft 413 kts 223°
2026-04-22 01:42 24.69703 -101.03176 31955 ft 412 kts 223°
2026-04-22 01:43 24.65184 -101.07030 31999 ft 410 kts 224°
2026-04-22 01:43 24.60696 -101.10878 32010 ft 408 kts 224°
2026-04-22 01:44 24.56180 -101.14702 31991 ft 411 kts 223°
2026-04-22 01:44 24.51644 -101.18551 31997 ft 413 kts 223°
2026-04-22 01:45 24.47130 -101.22395 31992 ft 414 kts 223°
2026-04-22 01:45 24.42542 -101.26278 31999 ft 413 kts 223°
2026-04-22 01:46 24.38033 -101.30090 31996 ft 411 kts 223°
2026-04-22 01:46 24.33510 -101.33916 31983 ft 410 kts 223°
2026-04-22 01:47 24.29007 -101.37732 31977 ft 408 kts 223°
2026-04-22 01:47 24.24504 -101.41547 31982 ft 410 kts 223°
2026-04-22 01:48 24.19973 -101.45380 31967 ft 413 kts 223°
2026-04-22 01:48 24.15271 -101.49024 31972 ft 424 kts 210°
2026-04-22 01:49 24.09611 -101.51108 31965 ft 429 kts 203°
2026-04-22 01:49 24.03905 -101.52924 31958 ft 425 kts 204°
2026-04-22 01:50 23.98264 -101.54791 31958 ft 424 kts 204°
2026-04-22 01:50 23.92613 -101.56752 31945 ft 428 kts 204°
2026-04-22 01:51 23.86925 -101.58743 31952 ft 430 kts 204°
2026-04-22 01:51 23.81236 -101.60713 31948 ft 427 kts 204°
2026-04-22 01:52 23.75595 -101.62658 31949 ft 424 kts 204°
2026-04-22 01:52 23.69980 -101.64594 31952 ft 424 kts 204°
2026-04-22 01:53 23.65292 -101.66214 31945 ft 427 kts 204°
2026-04-22 01:53 23.59608 -101.68178 31938 ft 430 kts 204°
2026-04-22 01:54 23.53919 -101.70127 31934 ft 427 kts 204°
2026-04-22 01:54 23.48268 -101.72056 31936 ft 424 kts 204°
2026-04-22 01:55 23.42655 -101.73979 31926 ft 423 kts 204°
2026-04-22 01:55 23.37024 -101.75916 31924 ft 426 kts 204°
2026-04-22 01:56 23.31346 -101.77861 31921 ft 429 kts 204°
2026-04-22 01:56 23.25683 -101.79796 31912 ft 429 kts 204°
2026-04-22 01:57 23.19963 -101.81742 31913 ft 427 kts 204°
2026-04-22 01:57 23.14333 -101.83658 31910 ft 426 kts 204°
2026-04-22 01:58 23.08678 -101.85584 31912 ft 425 kts 204°
2026-04-22 01:58 23.03038 -101.87504 31907 ft 424 kts 204°
2026-04-22 01:59 22.97413 -101.89419 31890 ft 424 kts 203°
2026-04-22 01:59 22.91765 -101.91341 31910 ft 428 kts 203°
2026-04-22 02:00 22.86051 -101.93278 31911 ft 432 kts 203°
2026-04-22 02:00 22.80320 -101.95217 31910 ft 429 kts 203°
2026-04-22 02:01 22.74640 -101.97136 31913 ft 425 kts 203°
2026-04-22 02:01 22.68995 -101.99048 31914 ft 426 kts 204°
2026-04-22 02:02 22.63313 -102.00976 31904 ft 430 kts 203°
2026-04-22 02:02 22.57582 -102.02910 31913 ft 433 kts 203°
2026-04-22 02:03 22.51818 -102.04845 31918 ft 433 kts 203°
2026-04-22 02:03 22.46083 -102.06772 31920 ft 430 kts 203°
2026-04-22 02:04 22.37549 -102.09650 31921 ft 427 kts 203°
2026-04-22 02:05 22.31854 -102.11573 31910 ft 431 kts 203°
2026-04-22 02:05 22.26153 -102.13498 31919 ft 434 kts 202°
2026-04-22 02:06 22.20362 -102.15440 31920 ft 437 kts 202°
2026-04-22 02:06 22.14570 -102.17378 31918 ft 434 kts 202°
2026-04-22 02:07 22.08828 -102.19300 31933 ft 430 kts 202°
2026-04-22 02:07 22.03122 -102.21216 31926 ft 430 kts 203°
2026-04-22 02:08 21.97386 -102.23147 31917 ft 433 kts 202°
2026-04-22 02:08 21.91606 -102.25083 31924 ft 436 kts 202°
2026-04-22 02:09 21.85793 -102.27020 31918 ft 438 kts 202°
2026-04-22 02:09 21.79991 -102.28953 31921 ft 434 kts 202°
2026-04-22 02:09 21.77108 -102.29914 32298 ft 433 kts 202°
2026-04-22 02:10 21.74238 -102.30871 32296 ft 432 kts 202°
2026-04-22 02:10 21.71385 -102.31924 31837 ft 435 kts 211°
2026-04-22 02:10 21.68846 -102.33610 31280 ft 425 kts 221°
2026-04-22 02:10 21.66541 -102.35551 30705 ft 418 kts 223°
2026-04-22 02:11 21.64302 -102.37523 30102 ft 414 kts 224°
2026-04-22 02:11 21.62117 -102.39455 29439 ft 410 kts 224°
2026-04-22 02:11 21.59917 -102.41386 28765 ft 407 kts 223°
2026-04-22 02:11 21.57722 -102.43287 28115 ft 403 kts 222°
2026-04-22 02:12 21.55535 -102.45153 27469 ft 400 kts 222°
2026-04-22 02:12 21.53354 -102.46992 26845 ft 397 kts 221°
2026-04-22 02:12 21.51179 -102.48816 26240 ft 398 kts 221°
2026-04-22 02:12 21.48991 -102.50646 25640 ft 399 kts 221°
2026-04-22 02:13 21.46804 -102.52474 25050 ft 399 kts 221°
2026-04-22 02:13 21.44607 -102.54312 24474 ft 401 kts 221°
2026-04-22 02:13 21.42410 -102.56152 24041 ft 399 kts 221°
2026-04-22 02:13 21.40228 -102.57980 23767 ft 397 kts 221°
2026-04-22 02:14 21.38059 -102.59796 23686 ft 397 kts 221°
2026-04-22 02:14 21.35874 -102.61625 23599 ft 400 kts 221°
2026-04-22 02:14 21.33678 -102.63465 23519 ft 401 kts 221°
2026-04-22 02:14 21.31478 -102.65308 23324 ft 403 kts 220°
2026-04-22 02:15 21.29258 -102.67175 22777 ft 406 kts 220°
2026-04-22 02:15 21.27049 -102.69022 22238 ft 401 kts 220°
2026-04-22 02:15 21.24860 -102.70846 21716 ft 396 kts 220°
2026-04-22 02:15 21.22697 -102.72652 21193 ft 392 kts 220°
2026-04-22 02:16 21.20550 -102.74447 20691 ft 390 kts 220°
2026-04-22 02:16 21.18417 -102.76230 20191 ft 388 kts 220°
2026-04-22 02:16 21.16294 -102.78003 19719 ft 385 kts 220°
2026-04-22 02:16 21.14181 -102.79753 19228 ft 383 kts 218°
2026-04-22 02:17 21.11842 -102.81102 18755 ft 386 kts 199°
2026-04-22 02:17 21.09185 -102.81500 18296 ft 388 kts 179°
2026-04-22 02:17 21.06512 -102.81197 17764 ft 387 kts 172°
2026-04-22 02:17 21.03855 -102.80866 17225 ft 382 kts 183°
2026-04-22 02:18 21.01294 -102.81395 16711 ft 373 kts 205°
2026-04-22 02:18 20.98975 -102.82604 16200 ft 369 kts 208°
2026-04-22 02:18 20.96647 -102.83742 15691 ft 367 kts 202°
2026-04-22 02:18 20.94263 -102.84648 15210 ft 360 kts 199°
2026-04-22 02:19 20.91886 -102.85413 14742 ft 354 kts 197°
2026-04-22 02:19 20.89538 -102.86132 14291 ft 348 kts 196°
2026-04-22 02:19 20.87229 -102.86831 13840 ft 342 kts 196°
2026-04-22 02:19 20.84954 -102.87519 13333 ft 337 kts 197°
2026-04-22 02:20 20.82751 -102.88194 13003 ft 319 kts 197°
2026-04-22 02:20 20.80669 -102.88841 12530 ft 305 kts 197°
2026-04-22 02:20 20.78669 -102.89465 12086 ft 294 kts 197°
2026-04-22 02:20 20.76713 -102.90086 11678 ft 293 kts 198°
2026-04-22 02:21 20.74788 -102.90699 11245 ft 292 kts 198°
2026-04-22 02:21 20.72849 -102.91314 10829 ft 290 kts 199°
2026-04-22 02:21 20.70916 -102.91928 10406 ft 288 kts 200°
2026-04-22 02:21 20.69004 -102.92537 10076 ft 284 kts 198°
2026-04-22 02:22 20.67119 -102.93125 9922 ft 282 kts 199°
2026-04-22 02:22 20.65227 -102.93718 9841 ft 284 kts 198°
2026-04-22 02:22 20.63323 -102.94317 9798 ft 286 kts 199°
2026-04-22 02:22 20.61412 -102.94917 9776 ft 286 kts 200°
2026-04-22 02:23 20.59491 -102.95526 9776 ft 288 kts 199°
2026-04-22 02:23 20.57578 -102.96136 9766 ft 288 kts 199°
2026-04-22 02:23 20.55662 -102.96734 9719 ft 289 kts 199°
2026-04-22 02:23 20.53729 -102.97329 9357 ft 287 kts 199°
2026-04-22 02:24 20.51833 -102.97921 9059 ft 281 kts 199°
2026-04-22 02:24 20.49993 -102.98494 8908 ft 269 kts 200°
2026-04-22 02:24 20.48247 -102.99047 8829 ft 254 kts 201°
2026-04-22 02:24 20.46607 -102.99567 8785 ft 238 kts 201°
2026-04-22 02:25 20.45075 -103.00052 8792 ft 222 kts 202°
2026-04-22 02:25 20.43606 -103.00513 8778 ft 218 kts 201°
2026-04-22 02:25 20.42144 -103.00994 8767 ft 220 kts 208°
2026-04-22 02:25 20.40997 -103.01977 8787 ft 211 kts 243°
2026-04-22 02:26 20.40737 -103.03436 8776 ft 201 kts 287°
2026-04-22 02:26 20.41248 -103.04829 8774 ft 203 kts 291°
2026-04-22 02:26 20.41754 -103.06235 8768 ft 202 kts 291°
2026-04-22 02:26 20.42278 -103.07573 8772 ft 199 kts 294°
2026-04-22 02:27 20.42881 -103.08929 8518 ft 200 kts 294°
2026-04-22 02:27 20.43447 -103.10286 8293 ft 194 kts 293°
2026-04-22 02:27 20.43987 -103.11555 8045 ft 181 kts 293°
2026-04-22 02:27 20.44482 -103.12732 7962 ft 164 kts 293°
2026-04-22 02:28 20.44921 -103.13775 7794 ft 146 kts 293°
2026-04-22 02:28 20.45323 -103.14734 7605 ft 137 kts 292°
2026-04-22 02:28 20.45715 -103.15668 7451 ft 143 kts 292°
2026-04-22 02:28 20.46149 -103.16710 7374 ft 159 kts 292°
2026-04-22 02:29 20.46601 -103.17795 7189 ft 161 kts 292°
2026-04-22 02:29 20.47052 -103.18869 6971 ft 155 kts 292°
2026-04-22 02:29 20.47486 -103.19911 6774 ft 153 kts 292°
2026-04-22 02:29 20.47913 -103.20930 6581 ft 153 kts 292°
2026-04-22 02:30 20.48351 -103.21974 6395 ft 151 kts 292°
2026-04-22 02:30 20.48757 -103.22936 6214 ft 139 kts 292°
2026-04-22 02:30 20.49162 -103.23882 6086 ft 141 kts 291°
2026-04-22 02:30 20.49555 -103.24839 6015 ft 141 kts 290°
2026-04-22 02:31 20.49960 -103.25772 5867 ft 135 kts 290°
2026-04-22 02:31 20.50331 -103.26680 5658 ft 140 kts 289°
2026-04-22 02:31 20.50748 -103.27690 5439 ft 145 kts 290°
2026-04-22 02:31 20.51151 -103.28649 5211 ft 140 kts 287°
2026-04-22 02:32 20.51543 -103.29584 5029 ft 135 kts 288°
2026-04-22 02:32 20.51892 -103.30424 5019 ft 112 kts 294°
2026-04-22 02:32 20.52126 -103.30986 5023 ft 55 kts 294°
2026-04-22 02:32 20.52283 -103.31351 5023 ft 55 kts 298°
2026-04-22 02:33 20.52421 -103.31525 5022 ft 24 kts 322°
2026-04-22 02:33 20.52529 -103.31591 5021 ft 13 kts 355°
2026-04-22 02:33 20.52533 -103.31591 5019 ft 0 kts 359°
2026-04-22 02:35 20.52534 -103.31591 5019 ft 1 kts 359°
2026-04-22 02:35 20.52572 -103.31585 5022 ft 10 kts 17°
2026-04-22 02:35 20.52670 -103.31541 5021 ft 18 kts 23°
2026-04-22 02:35 20.52757 -103.31479 5021 ft 7 kts 66°
2026-04-22 02:36 20.52754 -103.31438 5021 ft 9 kts 109°
2026-04-22 02:36 20.52718 -103.31345 5019 ft 18 kts 114°
2026-04-22 02:36 20.52654 -103.31192 5021 ft 27 kts 114°
2026-04-22 02:36 20.52569 -103.30990 5021 ft 33 kts 114°
2026-04-22 02:37 20.52516 -103.30889 5021 ft 13 kts 114°
2026-04-22 02:37 20.52469 -103.30770 5021 ft 22 kts 112°
2026-04-22 02:37 20.52399 -103.30602 5021 ft 26 kts 114°
2026-04-22 02:37 20.52326 -103.30413 5021 ft 30 kts 112°
2026-04-22 02:38 20.52293 -103.30264 5020 ft 12 kts 56°
2026-04-22 02:38 20.52356 -103.30208 5020 ft 11 kts 54°
2026-04-22 02:38 20.52405 -103.30142 5020 ft 11 kts 34°
2026-04-22 02:38 20.52428 -103.30132 5020 ft 3 kts 17°
2026-04-22 02:39 20.52432 -103.30131 5020 ft 0 kts 18°